Change the Weather History Date:

Wednesday, April 17, 2013

  Actual Average Record
Temperature  
Mean Temperature 13 °F -  
Max Temperature 28 °F 42 °F 62 °F (1998)
Min Temperature -2 °F 23 °F -8 °F (1961)
Degree Days  
Heating Degree Days 52    
Moisture  
Dew Point 2 °F    
Average Humidity 67    
Maximum Humidity 87    
Minimum Humidity 39    
Precipitation  
Precipitation 0.00 in - - ()
Sea Level Pressure  
Sea Level Pressure 30.31 in    
Wind  
Wind Speed 4 mph (ENE)    
Max Wind Speed 20 mph    
Max Gust Speed 25 mph    
Visibility 8 miles    
Events Fog    
Averages and records for this station are not official NWS values.
T = Trace of Precipitation, MM = Missing Value Source: NWS Daily Summary

Daily Weather History Graph

Daily Weather History Graph

Search for Another Location

Airport or City:

Trip Planner

Search our weather history database for the weather conditions in past years. The results will help you decide how hot, cold, wet, or windy it might be!

Date:

Astronomy

Apr. 17, 2013 Rise Set
Actual Time 6:05 AM AKDT 9:32 PM AKDT
Civil Twilight 5:07 AM AKDT 10:31 PM AKDT
Nautical Twilight 3:36 AM AKDT 12:05 AM AKDT
Astronomical Twilight Sun does not rise Sun does not rise
Moon 10:42 AM AKDT (4/17) 4:04 AM AKDT (4/17)
Length of Visible Light 17h 24m
Length of Day
15h 26m
Waxing Crescent, 44% of the Moon is Illuminated
Apr 17
Waxing Crescent
Apr 18
First Quarter
Apr 25
Full
May 2
Last Quarter
May 9
New

Hourly Weather History & Observations

Time (AKDT) Temp. Windchill Dew Point Humidity Pressure Visibility Wind Dir Wind Speed Gust Speed Precip Events Conditions
12:55 AM 22.8 °F 12.9 °F 6.6 °F 50% 30.26 in 10.0 mi NE 9.2 mph - N/A   Clear
1:55 AM 13.8 °F - 7.0 °F 74% 30.27 in 10.0 mi Calm Calm - N/A   Clear
2:55 AM 10.8 °F - 6.6 °F 83% 30.28 in 10.0 mi Calm Calm - N/A   Clear
3:55 AM 7.0 °F - 3.9 °F 87% 30.28 in 10.0 mi Calm Calm - N/A   Clear
4:55 AM 2.5 °F - -1.3 °F 84% 30.28 in 10.0 mi Calm Calm - N/A   Clear
5:55 AM -2.2 °F -12.5 °F -6.9 °F 80% 30.28 in 10.0 mi SE 4.6 mph - N/A   Partly Cloudy
6:03 AM -2.2 °F -10.4 °F -5.8 °F 85% 30.28 in 10.0 mi SE 3.5 mph - N/A   Mostly Cloudy
6:25 AM 1.4 °F - -2.2 °F 85% 30.28 in 0.2 mi Calm Calm - N/A Fog Light Freezing Fog
6:27 AM 1.4 °F - -2.2 °F 85% 30.28 in 0.2 mi Calm Calm - N/A Fog Light Freezing Fog
6:28 AM 1.4 °F - -2.2 °F 85% 30.28 in 0.2 mi Calm Calm - N/A Fog Light Freezing Drizzle
6:48 AM 1.4 °F -8.3 °F -2.2 °F 85% 30.28 in 0.2 mi ESE 4.6 mph - N/A   Light Freezing Drizzle
6:50 AM 1.4 °F -8.3 °F -2.2 °F 85% 30.28 in 0.2 mi ESE 4.6 mph - N/A   Light Freezing Drizzle
6:56 AM -0.4 °F - -4.0 °F 85% 30.28 in 3.0 mi Calm Calm - N/A   Light Freezing Drizzle
6:58 AM -0.4 °F - -4.0 °F 85% 30.28 in 8.0 mi Calm Calm - N/A   Light Freezing Drizzle
6:59 AM -0.4 °F - -4.0 °F 85% 30.32 in 2.0 mi Calm Calm - N/A   Mist
7:14 AM 1.4 °F - -4.0 °F 78% 30.28 in 2.0 mi Calm Calm - N/A   Scattered Clouds
7:32 AM -0.4 °F -10.4 °F -4.0 °F 85% 30.29 in 4.0 mi SE 4.6 mph - N/A   Partly Cloudy
7:55 AM 3.2 °F -4.2 °F -0.9 °F 83% 30.29 in 10.0 mi SE 3.5 mph - 0.00 in   Scattered Clouds
8:55 AM 9.0 °F - 5.5 °F 86% 30.29 in 10.0 mi Calm Calm - N/A   Clear
9:55 AM 12.0 °F - 6.4 °F 78% 30.30 in 10.0 mi Calm Calm - N/A   Clear
10:55 AM 19.8 °F - 7.3 °F 59% 30.30 in 10.0 mi Calm Calm - N/A   Mostly Cloudy
11:55 AM 23.7 °F 17.8 °F 6.4 °F 48% 30.29 in 10.0 mi Variable 4.6 mph - N/A   Scattered Clouds
12:55 PM 27.7 °F 18.2 °F 6.8 °F 41% 30.30 in 10.0 mi ENE 10.4 mph - N/A   Overcast
1:55 PM 28.0 °F 18.1 °F 6.1 °F 39% 30.31 in 10.0 mi NNE 11.5 mph - N/A   Mostly Cloudy
2:55 PM 27.7 °F 17.6 °F 5.7 °F 39% 30.33 in 10.0 mi NNE 11.5 mph 20.7 mph N/A   Mostly Cloudy
3:55 PM 27.7 °F 14.5 °F 6.6 °F 41% 30.33 in 10.0 mi NNE 19.6 mph - N/A   Clear
4:55 PM 28.4 °F 17.0 °F 8.8 °F 44% 30.34 in 10.0 mi NNE 15.0 mph 25.3 mph N/A   Scattered Clouds
5:55 PM 28.8 °F 19.0 °F 8.4 °F 42% 30.36 in 10.0 mi ENE 11.5 mph - N/A   Overcast
6:55 PM 28.9 °F 18.2 °F 6.6 °F 39% 30.37 in 10.0 mi ENE 13.8 mph - N/A   Mostly Cloudy
7:55 PM 28.6 °F 18.2 °F 7.0 °F 40% 30.38 in 10.0 mi ENE 12.7 mph - N/A   Partly Cloudy
8:55 PM 27.3 °F 19.9 °F 6.8 °F 42% 30.38 in 10.0 mi NNE 6.9 mph - N/A   Clear
9:55 PM 22.6 °F 18.0 °F 6.4 °F 50% 30.39 in 10.0 mi NNW 3.5 mph - N/A   Clear
10:55 PM 18.9 °F 10.8 °F 4.8 °F 54% 30.39 in 10.0 mi NNW 5.8 mph - N/A   Clear
11:55 PM 15.6 °F 4.9 °F 3.0 °F 58% 30.39 in 10.0 mi NNW 8.1 mph - N/A   Clear